Location: *
(49.5667°N, 1.3667°W)
Time: 00:03:17
(UTC+00:00)

Cosmos 1892 Rocket - Pass Details

Date: 20 September 2019
Orbit: 605 x 634 km, 82.5° (Epoch: 16 October)

Event Time Altitude Azimuth Distance (km) Brightness Sun altitude
Rises 20:03:51 0° 345° (NNW) 2,932 7.6 -18.9°
Reaches altitude 10° 20:06:08 10° 341° (NNW) 2,016 6.8 -19.2°
Maximum altitude 20:10:28 51° 266° (W) 790 4.4 -19.8°
Enters shadow 20:14:38 11° 191° (S) 1,949 5.9 -20.4°
